sat.trackr.live / text

‹ back to catalog

CUBESX-HSE 3 (RS42S)

NORAD 57178 · 2023-091N

PAYLOAD ACTIVE UNKNOWN

§ Identity

Operator
Country
CIS
Launch date
2023-06-27
Launch site
VOSTO
Launch vehicle
Mass (kg)
RCS (m²)

Purposes: comms

External: N2YO · Heavens-Above · Gunter

§ Orbital elements

Epoch: 2026-09-19T22:19:22.060416Z

Period
93.92 min
Inclination
97.4995°
Eccentricity
0.0011484
Mean motion
15.33292020 rev/d
Perigee alt
458.1 km
Apogee alt
473.9 km
Semi-major
6,844.1 km
B*
2.9756e-4
RAAN
329.8097°
Arg perigee
113.7455°
Mean anomaly
246.4993°
Rev number
17,893

§ Raw data

CUBESX-HSE 3 (RS42S)1 57178U 23091N   26262.93011644  .00009513  00000+0  29756-3 0  99982 57178  97.4995 329.8097 0011484 113.7455 246.4993 15.33292020178937

JSON: /api/v1/satellites/57178 · /tle

For live sub-satellite position, see the globe view (requires WebGL).

§ Visibility from observer

Set your observer location to see the next 7 days of passes ≥ 10°. The values pass through the URL so the page stays shareable.

No JS? Fill the form by hand. The geolocation button needs JavaScript.

§ Radio — SatNOGS DB

ModeDescriptionDownlinkUplink
GMSK USP Mode U - GMSK 4k8 (USP FEC) TLM 436.570 MHz

1 transmitter · refreshed weekly from db.satnogs.org